Flag Weather past 2 weeks in Bloomington, Illinois, U.S.A.

Now
34 °F

Clear.


Feels Like: 24 °F
Forecast: 34 / 45 °F
Wind: 15 mph from South

Location: Bloomington / Normal

Current Time: Nov 29, 2014 at 1:35:23 AM

Latest Report: Nov 29, 2014 at 12:56 AM


Visibility: 10 mi

Pressure: 29.89 "Hg

Humidity: 89%

Dew point: 31 °F

Location of BloomingtonLocation

Historic Weather in Bloomington — Graph

°F

Bloomington temperature yesterday

Maximum temperature yesterday: 38 °F (at 1:56 PM)
Minimum temperature yesterday: 15 °F (at 12:56 AM)
Average temperature yesterday: 29 °F

Past Weeks' High & Low Weather Summary

 TemperatureHumidityPressure
High54 °F (Nov 22, 1:56 PM)100% (Nov 23, 2:56 PM)30.53 "Hg (Nov 23, 2:56 PM)
Low8 °F (Nov 21, 6:56 AM)31% (Nov 21, 1:56 PM)29.14 "Hg (Nov 24, 4:02 AM)
Average27 °F78%30.13 "Hg
* Reported Nov 13 11:56 PM — Nov 28 11:56 PM, Bloomington, Weather by CustomWeather, © 2014

Note: Actual official high and low records may vary slightly from our data, if they occured in-between our weather recording intervals... More about our weather records

Advertising

Bloomington weather history for previous 24 hours

 ConditionsComfort  
Time TempWeatherWind HumidityBarometerVisibility
11:56 PM
Nov 28
34 °FClear.15 mph89%29.90 "Hg10 mi
10:56 PM34 °FClear.15 mph89%29.93 "Hg10 mi
9:56 PM35 °FClear.15 mph86%29.94 "Hg10 mi
8:56 PM35 °FClear.18 mph89%29.95 "Hg10 mi
7:56 PM34 °FClear.15 mph92%29.98 "Hg9 mi
6:56 PM34 °FClear.17 mph92%30.00 "Hg9 mi
5:56 PM35 °FClear.13 mph86%30.03 "Hg10 mi
4:56 PM35 °FClear.12 mph86%30.03 "Hg9 mi
3:56 PM37 °FSunny.22 mph80%30.01 "Hg10 mi
2:56 PM36 °FSunny.17 mph82%30.03 "Hg10 mi
1:56 PM38 °FSunny.23 mph77%30.05 "Hg10 mi
12:56 PM37 °FSunny.23 mph76%30.09 "Hg10 mi
11:56 AM36 °FSunny.25 mph76%30.12 "Hg10 mi
10:56 AM32 °FSunny.23 mph82%30.19 "Hg10 mi
9:56 AM29 °FSunny.22 mph78%30.25 "Hg10 mi
8:56 AM23 °FSunny.15 mph81%30.30 "Hg10 mi
7:56 AM20 °FPassing clouds.13 mph81%30.33 "Hg10 mi
6:56 AM18 °FSunny.8 mph77%30.36 "Hg10 mi
5:56 AM19 °FPassing clouds.7 mph78%30.37 "Hg10 mi
4:56 AM19 °FPassing clouds.8 mph81%30.40 "Hg10 mi
3:56 AM17 °FPassing clouds.5 mph84%30.42 "Hg10 mi
2:56 AM17 °FPassing clouds.No wind77%30.43 "Hg10 mi
1:56 AM16 °FClear.No wind83%30.46 "Hg10 mi
Weather by CustomWeather, © 2014

See weather overviewHow to use our weather pages